User: anonymous   Login
Location: Unspecified
(0.0000°N, 0.0000°E)
Time: 15:48:31
(UTC+00:00)
Language:

DNEPR OBJECT AB - Orbit

View from above orbital plane
View from above orbital plane
View from above satellite
View from above satellite

Ground track
Ground track

The orbit data is extracted from the following two-line orbital elements,

1 39441U 13066AB  19078.47762688 +.00000166 +00000-0 +30639-4 0  9998
2 39441 097.6047 080.1814 0082541 028.7452 331.8270 14.74873657285197
Epoch (UTC): 19 March 2019 11:27:46
Eccentricity: 0.0082541
inclination: 97.6047°
perigee height: 587 km
apogee height: 703 km
right ascension of ascending node: 80.1814°
argument of perigee: 28.7452°
revolutions per day: 14.74873657
mean anomaly at epoch: 331.8270°
orbit number at epoch: 28519

The dashed part of the orbit path shows where the satellite is in the earth's shadow,  

DLR